This is the latest recevied weather packets stored in our database for station/object HB9FHL-13. If no packets are shown the sender has not sent any weather packets the latest 10 day(s).
| Time | Temp. | Humidity | Pressure | Rain* | Wind** | Luminosity | Snow |
|---|---|---|---|---|---|---|---|
| 1788349745 | 21.11° C | - | 1020.4 hPa | 0 mm | - | - | - |
| 1788349445 | 21.67° C | - | 1024.2 hPa | 0 mm | - | - | - |
| 1788349144 | 22.22° C | - | 1024.7 hPa | 0 mm | - | - | - |
| 1788348844 | 22.22° C | - | 1026.4 hPa | 0 mm | - | - | - |
| 1788348543 | 21.67° C | - | 1024.7 hPa | 0 mm | - | - | - |
| 1788348241 | 21.11° C | - | 1025.3 hPa | 0 mm | - | - | - |
| 1788347941 | 21.11° C | - | 1025.3 hPa | 0 mm | - | - | - |
| 1788347640 | 21.67° C | - | 1027.6 hPa | 0 mm | - | - | - |
| 1788347340 | 21.67° C | - | 1022 hPa | 0 mm | - | - | - |
| 1788347039 | 21.11° C | - | 1025.5 hPa | 0 mm | - | - | - |
| 1788346738 | 21.11° C | - | 1023 hPa | 0 mm | - | - | - |
| 1788346438 | 20.56° C | - | 1021.8 hPa | 0 mm | - | - | - |
| 1788346137 | 20.56° C | - | 1024 hPa | 0 mm | - | - | - |
| 1788345837 | 20.56° C | - | 1025.3 hPa | 0 mm | - | - | - |
| 1788345536 | 21.67° C | - | 1021.8 hPa | 0 mm | - | - | - |
| 1788345236 | 20.56° C | - | 1024.9 hPa | 0 mm | - | - | - |
| 1788344935 | 21.11° C | - | 1022.8 hPa | 0 mm | - | - | - |
| 1788344635 | 21.67° C | - | 1029.3 hPa | 0 mm | - | - | - |
| 1788344333 | 21.67° C | - | 1023 hPa | 0 mm | - | - | - |
| 1788344033 | 20.56° C | - | 1023.6 hPa | 0 mm | - | - | - |
| 1788343732 | 21.11° C | - | 1023.4 hPa | 0 mm | - | - | - |
| 1788343432 | 20.56° C | - | 1023.2 hPa | 0 mm | - | - | - |
| 1788343131 | 19.44° C | - | 1024.5 hPa | 0 mm | - | - | - |
| 1788342831 | 20° C | - | 1023.2 hPa | 0 mm | - | - | - |
| 1788342530 | 20° C | - | 1023 hPa | 0 mm | - | - | - |
* Rain since midnight (hover to see other rain measurements)
** Current wind speed in m/s (hover to see current wind gust speed)